Regional Weather Roundup
Issued by NWS San Diego, CA

Home | Current Version | Previous Version | Text Only | Print | Product List | Glossary On
Versions: 1 2 3 4 5 6 7 8 9 10 11 12 13 14 15 16 17 18 19 20 21 22 23 24 25 26 27 28 29 30 31 32 33 34 35 36 37 38 39 40 41 42 43 44 45 46 47 48 49 50
000
ASUS46 KSGX 260611
RWRSGX

SAN DIEGO HOURLY WEATHER ROUNDUP
NATIONAL WEATHER SERVICE SAN DIEGO CA
1100 PM PDT SUN JUN 25 2017

NOTE: "FAIR" INDICATES FEW OR NO CLOUDS BELOW 12,000 FEET WITH NO
SIGNIFICANT WEATHER AND/OR OBSTRUCTIONS TO VISIBILITY.

CAZ042-043-060-061-PZZ750-775-260700-

GREATER SAN DIEGO AREA

CITY           SKY/WX    TMP DP  RH WIND       PRES   REMARKS
SAN DIEGO AP   PTCLDY    68  64  87 NW3       29.92R
NATIONAL CITY    N/A     68  63  83 CALM      29.90S
CHULA VISTA      N/A     65  63  92 CALM      29.83R
IMPERIAL BEACH CLEAR    N/A N/A N/A SW3       29.91S
BROWN FIELD    CLEAR     64  60  87 CALM      29.91S
MIRAMAR MCAS   CLEAR     66  57  72 W3        29.91R
MONTGOMERY FLD CLEAR     73  60  63 W5        29.91R
GILLESPIE FLD  FAIR      77  61  57 CALM      29.90R

$$

NORTH SAN DIEGO COUNTY

CITY           SKY/WX    TMP DP  RH WIND       PRES   REMARKS
CAMP PENDLETON CLEAR     60  60 100 W3        29.90R FOG
OCEANSIDE AP   CLEAR     65  62  90 CALM      29.89S
OCEANSIDE HBR    N/A     64  62  94 CALM      29.92S
VISTA            N/A     67  61  81 CALM      29.87R
CARLSBAD       CLEAR     67  62  84 CALM      29.90R
DEL MAR          N/A     63  61  93 CALM      29.93R
LA JOLLA SCRIP   N/A     64  63  98 NW2       29.90R
FALLBROOK        N/A     68  64  87 CALM      29.90R
ESCONDIDO        N/A     76  62  61 NW2       29.90S
SAN MARCOS       N/A     71  60  69 CALM      29.91R
POWAY            N/A     72  62  71 CALM      29.90S

$$

EAST SAN DIEGO COUNTY

CITY           SKY/WX    TMP DP  RH WIND       PRES   REMARKS
RAMONA         CLEAR     71  59  65 CALM      29.95S
SANTEE LAKES     N/A     74  62  64 CALM      29.88R
LA MESA          N/A     71  63  75 CALM      29.82S
JAMUL            N/A     73  62  68 CALM      29.89R
DESCANSO N       N/A     84  37  19 CALM      29.81S
CAMPO            N/A     73  48  41 NE3       30.00R

$$

ORANGE COUNTY AND THE LOS ANGELES BASIN

CITY           SKY/WX    TMP DP  RH WIND       PRES   REMARKS
JOHN WAYNE AP  CLEAR     69  62  78 W5        29.89S
LAGUNA BEACH     N/A    N/A N/A N/A SE2       29.85R
LAKE FOREST FR   N/A     75  52  43 CALM      29.76S
HUNTINGTON BCH   N/A     64  62  91 W2        29.91R
LOS ALAMITOS   FAIR      65  60  86 CALM      29.89S
FULLERTON      CLEAR     72  60  66 CALM      29.88S
LONG BEACH     CLEAR     70  57  63 CALM      29.89S
L.A. AP        CLEAR     67  61  81 S3        29.89S
L.A. DOWNTOWN  CLEAR     71  61  70 CALM      29.89R

$$

THE INLAND EMPIRE

CITY           SKY/WX    TMP DP  RH WIND       PRES   REMARKS
CORONA         CLEAR     69  56  62 NE3       29.91R
CHINO          CLEAR     75  59  57 SE3       29.92R
ONTARIO        CLEAR     79  59  50 CALM      29.92R
SAN BERNARDINO FAIR      83  56  40 CALM      29.94R
RIVERSIDE AP   CLEAR     78  59  51 CALM      29.92R
MORENO VALLEY    N/A     79  52  38 CALM      28.07R
MARCH ARB      CLEAR     75  54  48 S5        29.95S
HORSETHIEF CYN   N/A     78  50  36 CALM      29.89R
PERRIS           N/A     80  58  46 CALM      29.94R
HEMET EAST       N/A     82  38  20 CALM      29.93S
FRENCH VALLEY  FAIR      81  55  41 CALM      29.95R
TEMECULA         N/A     81  55  40 CALM      29.96R

$$

SAN BERNARDINO AND RIVERSIDE COUNTY MOUNTAINS

CITY           SKY/WX    TMP DP  RH WIND       PRES   REMARKS
BIG BEAR AP    CLEAR     66  32  28 CALM      30.34S
PINE COVE        N/A     72  35  25 N3        29.86R

$$

SOUTHERN DESERT INCLUDING THE COACHELLA VALLEY

CITY           SKY/WX    TMP DP  RH WIND       PRES   REMARKS
PALM SPRINGS   CLEAR    102  39  11 NW8G21    29.80R HX  97
THOUSAND PALMS   N/A    101  39  11 NW12      29.74R HX  96
PALM DESERT      N/A    102  44  14 N6        29.57  HX  97
THERMAL        CLEAR    101  39  12 NW13      29.72R HX  96
BLYTHE         CLEAR     96  60  30 SE9       29.77R HX  96
IMPERIAL AP    CLEAR     93  44  18 W8        29.75R
EL CENTRO NAS  CLEAR     96  31  10 SW8       29.77
YUMA AZ        CLEAR     91  65  41 S10       29.78R
MEXICALI       CLEAR     86  66  51 S7        29.78R

$$

UPPER DESERT

CITY           SKY/WX    TMP DP  RH WIND       PRES   REMARKS
VICTORVILLE AP CLEAR     81  30  16 W7        30.05R
HESPERIA         N/A     84  40  20 W2        29.95R
PALMDALE       CLEAR     85  42  22 W12       30.03R
LANCASTER      CLEAR     82  41  23 SW10      30.01R
EDWARDS AFB    CLEAR     83  33  17 SW9       29.97R
DAGGETT        CLEAR     93  28  10 SW14      29.93R
29 PALMS N     CLEAR     93  24   8 NW13      30.00R

$$

REGIONAL REPORTS

CITY           SKY/WX    TMP DP  RH WIND       PRES   REMARKS
SANTA BARBARA  CLEAR     63  59  87 SE3       29.87S
SANDBERG       CLEAR     81  31  16 W10       30.20R
LAS VEGAS NV   CLEAR    100  19   5 W14G20    29.85R
PHOENIX AZ     PTCLDY    99  46  16 SW6       29.81R HX  95
TIJUANA        CLEAR     66  59  77 CALM      29.92S
ENSENADA NW      N/A     64  32  30 CALM      29.88S

$$

OFFSHORE ISLANDS

CITY           SKY/WX    TMP DP  RH WIND       PRES   REMARKS
CATALINA ARPT  CLEAR     87  28  12 W15       29.98R
SAN NICOLAS IS CLEAR     65  44  46 W24G31    29.94R

$$

MARINE AND OFFSHORE BUOY REPORTS

STATION/POSITION SKY/WX   TEMP    WIND        PRES    VSBY  SWELL
                          AIR SEA DIR/SP/G                  HT/PER/DIR
                          (F)     (DEG/KT/KT) (MB)    (MI)  (FT/S/D)
TANNER BANKS               60 62  310/ 21/ 25 1012.7          3/260/14
S CLEMENTE BASIN              64  310/  2/  4 1012.7R         5/230/13
SAN NICOLAS IS.               59                N/A           3/220/14
SO. S. ROSA ISLA           57 56  310/ 17/ 21 1013.7R         2/220/14
W. S. BARBARA CH           57 54  310/ 25/ 29 1013.4S         2/180/14
M. S. BARBARA CH           64 61  270/ 14/ 17 1012.3F         2/230/ 8
S. MONICA BASIN            64 64  350/  8/ 10 1012.0R         5/270/ 6
S PEDRO CHANNEL               65                N/A           2/160/13
CMP PENDLETON NS              63                N/A           2/230/14
OCEANSIDE OFFSHR              65                N/A           2/210/14
TORREY PINES OTR              67                N/A           3/220/13
SAN DIEGO BAY                 66              1012.9R
POINT LOMA SOUTH              65                N/A           2/220/17

$$





USA.gov is the U.S. government's official web portal to all federal, state and local government web resources and services.